Content
SEND FEEDBACK

Daily
Averages
Monthly
Summary
United States of America

NENANA, ALASKA


Home > North America > United States > Alaska
Elevation: 107 meters     Latitude: 64 33N     Longitude: 149 05W

WEATHER
 
SELECT A DAY
Number of Records: 185,781;   Date Range: 1/1/95 - 10/21/14
 
SHARE

PRINT THIS DATA

[ ← Previous Day ]
WEATHER ALMANAC - 13 FEBRUARY, 2013
[ Next Day → ]
[ °F ]   °C
Weather ElementAverageHighLow
Temperature-20.9 °C-14.4 °C (3:53 pm)-25 °C (1:53 am)
Dewpoint-23.8 °C (2:53 pm)-27.8 °C (1:53 am)
Humidity78.4 %84 % (4:53 pm)74 % (3:53 am)
Barometer1009.1 hPa1010.2 hPa (10:53 am)1008.5 hPa (4:53 pm)
Wind Speed0.8 km/h5.6 km/h (2:53 pm)
Weather ElementAverage
Visibility16.1 km
Wind DirectionNNE (35.2 °)

Weather ElementTotal
Precipitation---
Heating Degree Days38.1 (Base 18.3)
Averaged from 23 records on 13 February, 2013
WEATHER CONDITIONS BREAKOUT
WIND DIRECTION BREAKOUT
WEATHER BY HOUR - 13 FEBRUARY, 2013
[ °F ]   °C
Local TimeTemperatureDewpointHumidityBarometerVisibilityWind DirectionWind SpeedGust SpeedPrecipitationEventsConditions
1:53 AM-25 °C-27.8 °C78 %1009.5 hPa16.1 kmCalmClear
2:53 AM-24.4 °C-27.2 °C78 %1009.1 hPa16.1 kmCalmClear
3:53 AM-24.4 °C-27.8 °C74 %1009.1 hPa16.1 kmCalmClear
4:53 AM-24.4 °C-27.2 °C78 %1009.5 hPa16.1 kmCalmClear
5:53 AM-23.9 °C-27.2 °C75 %1009.1 hPa16.1 kmCalmClear
6:53 AM-23.9 °C-27.2 °C75 %1009.1 hPa16.1 kmCalmClear
7:53 AM-24.4 °C-27.8 °C74 %1009.1 hPa16.1 kmCalmClear
8:53 AM-23.9 °C-26.7 °C78 %1009.5 hPa16.1 kmCalmClear
9:53 AM-24.4 °C-27.8 °C74 %1009.8 hPa16.1 kmCalmClear
10:53 AM-23.9 °C-27.2 °C75 %1010.2 hPa16.1 kmCalmClear
11:53 AM-20.6 °C-23.3 °C80 %1010.2 hPa16.1 kmCalmClear
12:53 PM-18.3 °C-20.6 °C83 %1009.8 hPa16.1 kmCalmClear
1:53 PM-15 °C-18.3 °C76 %1009.5 hPa16.1 kmCalmClear
2:53 PM-15 °C-17.8 °C80 %1009.1 hPa16.1 kmNW (310°)5.6 km/hClear
3:53 PM-14.4 °C-17.8 °C76 %1008.8 hPa16.1 kmCalmClear
4:53 PM-15.6 °C-17.8 °C84 %1008.5 hPa16.1 kmCalmClear
5:53 PM-17.8 °C-20 °C83 %1008.5 hPa16.1 kmCalmClear
6:53 PM-20 °C-22.8 °C79 %1008.5 hPa16.1 kmCalmClear
7:53 PM-20 °C-22.2 °C83 %1008.5 hPa16.1 kmWest (270°)5.6 km/hClear
8:53 PM-18.9 °C-21.1 °C83 %1008.8 hPa16.1 kmCalmClear
9:53 PM-20 °C-22.8 °C79 %1008.8 hPa16.1 kmSW (230°)5.6 km/hClear
10:53 PM-21.1 °C-23.9 °C79 %1008.8 hPa16.1 kmCalmClear
11:53 PM-22.2 °C-25 °C79 %1008.8 hPa16.1 kmCalmClear
Hourly data recorded from PANN, located 0 kilometers away from Nenana, Alaska







STORIES FROM OUR PARTNERS